SCP
0 0 0 0 0 0 -0 -0 -0 -0 -0 -0 -0 -0 0 0 0 0 0 0 -0 -0 -0 -0 -0 -0 0 0 0 -0 0 0 0 0 0 0 0 -0 -0 -0 -0 0 0
0 0 0 0 0 0 -0 -0 -0 -0 -0 -0 -0 -0 -0 0 0 0 0 0 -0 -0 -0 -0 -0 -0 0 0 0 0 0 0 0 0 0 0 0 0 -0 -0 -0 0 0
0 0 0 0 0 0 0 0 -0 -0 -0 -0 -0 -0 -0 -0 -0 -0 -0 -0 -0 -0 -0 -0 -0 0 0 0 0 0 0 0 0 0 0 0 0 0 0 -0 0 0 0
0 0 0 0 0 0 0 0 0 -0 -0 -0 -0 -0 -0 -0 -0 -0 -0 -0 -0 -0 -0 -0 -0 0 0 0 0 0 0 0 0 0 0 0 0 0 0 0 0 0 0
0 0 0 0 0 0 0 0 0 0 -0 -0 -0 -0 -0 -0 -0 -0 -0 -0 -0 -0 -0 -0 -0 0 0 0 0 0 0 0 0 0 0 0 0 0 0 0 0 0 0
0 0 0 0 0 0 0 0 0 0 0 -0 -0 -0 -0 -0 -0 -0 -0 -0 -0 -0 -0 -0 -0 -0 0 0 0 0 0 0 0 0 0 0 0 0 0 0 0 0 0
0 0 0 0 0 0 0 0 0 0 0 0 0 0 -0 -0 -0 -0 -0 -0 -0 -0 -0 -0 -0 -0 -0 0 0 0 0 0 0 0 0 0 0 0 0 0 0 0 0
0 0 0 0 0 0 0 0 0 0 0 0 0 0 0 -0 -0 -0 -0 -0 -0 -0 -0 -0 -0 -0 0 0 0 0 0 -0 0 0 0 0 0 0 0 0 0 0 0
0 0 0 0 0 0 0 0 0 0 0 0 0 0 0 0 0 0 0 0 0 -0 -0 -0 0 0 0 0 0 0 0 0 -0 -0 0 0 0 -0 -0 0 0 0 0
0 0 0 0 0 0 0 0 0 0 0 0 0 0 0 0 0 0 0 0 0 0 0 0 0 0 0 0 0 0 0 -0 -0 -0 0 0 0 -0 -0 0 0 0 0
0 0 0 0 0 0 0 0 0 0 0 0 0 0 0 0 0 0 0 0 0 0 0 0 0 0 0 0 0 -0 -0 -0 -0 0 0 0 0 -0 -0 0 0 0 0
0 0 0 0 0 0 0 0 0 0 0 0 0 0 0 0 0 0 0 0 0 0 0 0 0 0 0 0 0 -0 -0 -0 -0 0 0 0 0 -0 -0 0 0 0 0
0 0 0 0 0 0 0 0 0 0 0 0 0 0 0 0 0 0 0 0 0 0 0 0 0 0 0 0 -0 -0 -0 -0 -0 0 0 0 0 -0 0 0 0 0 0
0 0 0 0 0 0 0 0 0 0 0 0 0 0 0 0 0 0 0 0 0 0 0 0 0 0 0 0 -0 -0 -0 -0 -0 0 0 0 0 0 0 0 0 0 0
0 0 0 0 0 0 0 0 0 0 0 0 0 0 0 0 0 0 0 0 0 0 0 0 0 0 0 0 -0 0 0 0 0 0 0 0 0 0 0 0 0 0 0
0 0 0 0 0 0 0 0 0 0 0 0 0 0 0 0 0 0 0 0 0 0 0 0 0 0 0 0 0 0 0 0 0 0 0 0 0 0 0 0 0 0 0
0 0 0 0 0 0 0 0 0 0 0 0 0 0 0 0 0 0 0 0 0 0 0 0 0 0 0 0 0 0 0 0 0 0 0 0 0 0 0 0 0 0 0
0 0 0 0 0 0 0 0 0 0 0 0 0 0 0 0 0 0 0 0 0 0 0 0 0 0 0 0 0 0 0 0 0 0 0 0 0 0 0 0 0 0 0
0 0 0 0 0 0 0 0 0 0 0 0 0 0 0 0 0 0 0 0 0 0 0 0 0 0 0 0 0 0 0 0 0 0 0 0 0 0 0 0 0 0 0
0 0 0 0 0 0 0 0 0 0 0 1 1 1 1 0 0 1 1 1 1 1 0 0 0 0 0 0 0 0 0 0 0 0 0 0 0 0 0 0 0 0 0
0 0 0 0 0 0 0 0 0 0 0 1 1 1 1 1 1 1 1 1 1 1 0 0 0 0 0 0 0 0 0 0 0 0 0 0 0 0 0 0 0 0 0
0 0 0 0 0 0 0 0 0 0 1 1 1 1 1 1 1 1 1 1 1 1 0 0 0 0 0 0 0 0 0 0 0 0 0 0 0 0 0 0 0 0 0
0 0 0 0 0 0 0 0 0 0 1 1 1 1 1 1 1 1 1 1 1 1 0 0 0 0 0 0 0 0 0 0 0 0 0 0 0 0 0 0 0 0 0
0 0 0 0 0 0 0 0 0 0 1 1 1 1 1 1 1 1 1 1 1 1 0 0 0 0 0 0 0 0 0 0 0 0 0 0 0 0 0 0 0 0 0
0 0 0 0 0 0 0 0 0 0 0 1 1 1 1 1 1 1 1 1 1 1 1 0 0 0 0 0 0 0 0 0 0 0 0 0 0 0 0 0 0 0 0
0 0 0 0 0 0 0 0 0 0 0 0 1 1 1 1 1 1 1 1 1 1 1 1 0 0 0 0 0 0 0 0 0 0 0 0 0 0 0 0 0 0 0
Wind_Speed
11 12 14 12 11 10 10 9 9 10 10 10 10 10 10 10 9 7 7 6 6 5 5 4 4 4 4 4 4 4 5 5 6 6 6 6 6 6 6 5 3 7 9
14 14 15 13 12 11 11 10 10 10 10 9 9 9 9 9 8 7 6 6 5 5 4 4 4 4 4 4 4 4 5 5 5 6 5 6 7 6 6 5 5 7 7
15 14 15 13 13 12 11 10 10 9 9 9 9 8 8 8 7 6 5 5 4 4 4 4 4 4 4 4 4 4 5 5 5 5 2 4 7 7 6 6 6 7 6
14 13 13 14 13 12 11 10 10 10 9 9 8 8 8 7 7 6 5 5 4 4 3 3 4 4 4 4 4 4 4 4 5 3 2 5 6 8 5 5 6 6 6
12 11 13 13 13 12 11 10 10 9 9 9 8 8 8 7 7 6 6 5 4 3 3 3 3 4 4 4 4 4 4 5 3 2 4 4 5 6 5 5 5 5 5
12 11 13 12 12 11 11 10 9 9 9 8 8 8 8 8 7 7 6 5 4 3 3 2 3 3 4 4 3 3 4 5 5 3 3 3 5 5 5 5 5 5 5
11 10 12 11 11 10 10 10 10 10 9 9 9 8 8 8 7 7 6 5 4 4 3 3 2 3 3 3 3 3 5 4 2 3 3 3 5 4 4 4 4 5 5
9 9 11 11 9 10 10 10 10 10 10 10 9 9 8 8 8 7 7 5 5 4 4 3 3 3 4 3 3 3 5 4 4 3 3 4 5 3 3 3 3 3 4
7 8 7 10 11 11 9 9 10 10 10 10 10 10 9 8 8 8 7 6 5 5 4 4 4 4 5 4 3 3 4 1 2 3 3 4 4 2 2 2 2 2 3
6 7 7 7 8 9 11 12 11 11 11 11 11 11 10 9 9 9 10 8 6 5 5 5 5 5 5 5 4 3 3 5 3 3 2 6 4 2 2 2 1 2 3
4 5 6 6 6 6 6 8 10 11 11 11 11 12 11 10 10 10 8 8 7 6 6 6 6 6 6 6 5 3 5 4 4 2 2 7 2 2 2 2 2 2 2
2 4 6 7 7 7 6 6 7 8 9 10 9 11 10 8 6 5 10 8 7 6 6 5 5 7 8 7 8 7 5 4 4 2 4 5 1 1 2 2 2 2 2
7 5 6 7 8 8 6 6 5 4 5 8 9 9 8 7 6 6 6 8 9 9 9 8 9 8 6 4 4 6 3 3 2 2 5 5 0 1 2 3 3 2 1
10 10 9 9 7 8 8 7 6 5 5 6 8 10 7 5 6 6 5 5 6 5 5 6 5 6 6 7 8 7 6 4 2 1 6 5 1 1 2 3 3 3 2
10 10 10 10 9 8 7 6 7 7 7 7 6 7 8 6 7 6 6 5 6 5 6 6 7 7 7 7 6 6 6 5 3 2 4 6 2 0 1 3 4 4 3
10 10 9 9 8 9 7 7 7 7 7 7 6 9 9 7 7 6 7 6 6 6 6 6 8 6 6 6 7 6 5 5 4 4 2 6 6 2 0 2 4 4 4
10 10 9 8 8 8 8 8 6 7 7 7 7 9 9 9 9 8 7 7 7 7 8 7 8 6 6 6 7 7 6 5 5 5 4 2 5 7 4 2 2 3 4
10 10 9 8 8 8 7 7 6 6 7 7 6 6 9 10 11 8 7 7 7 6 6 6 6 7 7 7 7 7 6 5 7 5 5 5 3 3 7 5 2 2 3
10 9 9 9 8 8 8 6 6 6 7 7 6 6 8 10 11 9 7 7 7 6 6 7 7 8 8 7 6 5 6 5 6 6 7 6 5 4 3 8 5 3 2
10 9 9 8 8 8 6 6 5 5 5 6 7 8 9 8 10 8 7 8 7 6 6 7 8 7 6 6 7 6 6 6 6 6 6 5 5 6 4 5 6 7 5
10 10 10 10 9 7 6 6 5 5 5 5 5 8 9 10 9 8 6 7 7 7 7 8 6 8 7 6 6 6 7 8 8 6 6 6 7 5 6 6 4 4 6
11 11 10 10 10 8 6 6 5 6 6 5 5 7 9 10 10 8 9 7 7 6 7 7 6 5 5 5 5 5 6 7 7 8 7 7 8 7 7 7 7 6 4
11 11 9 10 10 9 9 6 6 5 5 4 5 5 7 9 10 9 10 8 8 8 7 7 7 7 5 5 5 5 5 6 4 6 9 8 8 6 7 7 7 7 6
12 11 10 9 9 9 8 7 8 6 6 6 5 4 6 7 9 10 10 10 9 8 8 8 8 7 6 5 4 4 4 2 3 3 5 7 8 8 8 6 7 7 7
12 11 10 10 9 9 8 7 7 6 5 5 4 4 4 4 6 7 8 8 9 8 9 10 9 9 7 7 5 4 4 3 5 4 3 4 5 6 7 7 6 6 6
12 11 10 10 10 10 9 8 7 8 7 6 4 3 2 1 2 4 5 7 8 7 9 9 9 11 9 8 7 5 5 4 4 4 5 4 3 3 4 4 5 4 5
Wind_Direction
152 147 141 149 146 142 137 133 132 136 142 145 150 156 161 165 167 164 162 161 161 161 160 156 144 134 135 133 129 122 110 100 93 93 95 91 90 91 93 103 138 108 102
147 144 144 149 146 143 140 138 136 136 137 139 142 147 153 158 159 157 156 157 159 160 160 157 151 150 148 144 138 132 116 102 95 92 99 108 94 90 92 78 33 84 108
145 143 149 150 147 146 145 143 141 139 138 140 141 144 147 150 151 151 151 153 156 159 163 160 158 158 153 150 147 137 119 108 103 99 159 112 105 93 91 90 86 98 106
146 149 149 148 150 150 150 148 147 146 145 145 146 147 149 150 151 152 152 152 154 158 162 163 162 159 154 147 144 137 128 117 111 181 144 80 93 90 87 90 93 97 101
148 149 141 152 152 154 155 154 154 151 151 153 154 153 154 154 154 156 155 152 152 156 159 162 166 160 153 147 148 147 140 123 136 231 72 70 75 85 81 84 86 90 97
150 151 144 158 157 160 162 160 160 158 159 162 161 159 159 159 158 158 157 153 152 156 154 154 164 161 159 153 155 154 146 139 198 104 90 83 83 87 80 79 81 86 90
155 155 150 160 164 166 168 168 168 167 169 171 170 167 167 165 164 163 161 155 155 158 152 146 151 155 156 149 139 139 136 162 188 115 105 81 76 83 82 76 81 84 86
159 161 155 161 174 177 179 179 179 179 180 180 178 175 174 174 170 166 162 159 161 158 150 142 139 144 142 144 138 138 146 218 161 132 115 93 80 93 88 79 74 79 90
168 173 175 173 180 188 195 196 193 193 190 186 184 182 183 182 178 172 167 166 165 160 154 146 138 135 133 134 133 129 138 265 219 140 131 99 93 91 92 83 79 83 95
191 194 198 200 202 196 193 197 206 205 201 196 192 189 188 189 189 182 184 170 172 169 161 153 144 134 130 128 128 129 154 216 196 167 140 98 98 101 100 90 75 86 103
230 235 232 229 229 238 233 197 204 213 210 206 200 196 200 205 194 189 181 158 179 178 170 162 155 144 148 142 133 148 212 218 166 198 100 82 91 110 119 113 96 88 101
294 260 254 252 246 242 244 235 224 220 211 215 213 200 208 215 206 207 134 172 189 186 180 174 162 174 210 179 160 196 203 193 198 176 100 90 86 151 142 136 125 108 109
2 348 319 290 266 257 246 246 239 233 226 227 227 217 215 213 205 206 182 179 192 195 197 169 196 205 209 194 193 195 179 214 205 168 109 105 123 213 169 154 144 137 134
10 5 353 336 309 279 262 255 251 245 237 231 229 230 220 218 223 210 209 203 194 198 204 209 219 201 211 201 205 199 180 209 191 131 104 108 101 237 196 175 167 165 168
8 360 354 347 339 322 299 275 264 255 251 247 239 242 227 226 228 218 216 206 215 208 195 215 222 206 214 214 215 217 201 193 191 165 118 124 115 17 230 196 182 180 183
3 355 348 345 347 334 316 293 275 270 259 258 249 244 239 230 236 230 229 213 216 215 212 215 217 206 215 212 214 216 227 209 213 176 159 146 152 152 243 233 209 192 187
358 351 348 340 345 336 324 308 292 278 272 262 254 252 245 237 237 234 235 222 215 212 214 217 213 213 215 209 214 220 220 226 231 206 176 189 161 162 177 223 233 204 197
353 349 346 343 340 332 321 303 292 279 272 265 259 259 256 245 238 234 234 234 225 218 215 209 218 209 210 216 217 210 214 202 228 221 205 197 189 167 167 175 210 203 199
347 344 343 342 337 329 319 299 285 276 265 259 252 250 253 250 244 233 230 233 227 218 217 213 212 214 217 218 227 222 225 209 216 217 223 211 183 195 170 148 179 183 174
343 342 342 338 335 330 320 310 292 279 271 262 251 242 242 246 247 240 232 229 225 216 216 217 211 214 228 225 233 225 223 220 218 219 232 222 217 201 191 167 181 168 168
341 341 340 337 338 334 327 321 311 300 289 270 259 251 239 237 237 234 234 233 221 215 213 212 207 210 218 226 234 228 222 226 229 209 226 227 221 208 204 192 198 175 163
341 339 335 337 336 335 327 313 296 293 282 274 264 255 242 234 229 227 224 225 218 210 207 204 198 204 210 217 226 234 232 220 220 228 223 230 237 204 220 211 193 187 188
343 340 335 335 333 334 330 319 311 300 285 273 264 254 242 232 224 223 225 221 215 208 205 198 193 201 203 211 227 225 230 228 215 213 219 221 231 228 220 222 216 200 188
342 337 334 334 335 337 332 331 325 313 305 299 289 269 251 235 225 219 221 220 212 208 206 203 196 195 191 197 213 237 253 284 225 214 208 222 224 224 229 219 224 219 202
344 341 340 339 341 340 337 336 328 321 310 302 299 283 265 240 227 220 219 218 214 212 212 209 199 198 196 193 189 194 221 246 252 248 231 211 208 216 223 226 220 222 212
352 353 352 352 351 348 346 348 345 337 332 330 332 321 299 256 227 220 217 217 218 216 214 210 205 203 203 202 195 189 191 200 211 222 235 239 234 215 212 221 232 222 222